Temp
-14 -14 -14 -15 -13 -12 -11 -11 -11 -11 -10 -10 -10 -10 -9 -9 -9 -9 -9 -8 -8 -8 -8 -8 -7 -8 -7 -7 -6 -6 -5 -5 -5 -5 -5 -5 -4 -4 -5 -5 -5 -5 -5 -5 -6
-14 -14 -14 -14 -13 -11 -11 -11 -11 -10 -10 -10 -10 -10 -9 -9 -9 -9 -9 -8 -8 -8 -8 -8 -8 -8 -7 -7 -6 -6 -6 -5 -5 -5 -5 -5 -5 -5 -5 -5 -5 -6 -5 -6 -6
-15 -14 -14 -13 -12 -11 -11 -11 -10 -10 -10 -10 -10 -9 -9 -9 -9 -9 -9 -8 -8 -8 -8 -7 -7 -7 -7 -7 -6 -6 -6 -6 -5 -5 -5 -5 -5 -5 -5 -5 -5 -5 -6 -6 -6
-15 -14 -13 -12 -11 -10 -10 -10 -10 -9 -10 -10 -9 -9 -9 -9 -9 -9 -8 -8 -8 -7 -7 -7 -7 -7 -7 -6 -6 -6 -6 -6 -6 -5 -5 -5 -5 -5 -5 -5 -5 -5 -5 -5 -5
-13 -13 -12 -11 -10 -10 -10 -9 -9 -9 -9 -9 -9 -9 -9 -9 -8 -8 -8 -8 -8 -7 -7 -7 -7 -7 -6 -6 -6 -6 -6 -6 -6 -5 -5 -5 -5 -5 -6 -6 -5 -5 -5 -6 -6
-11 -11 -10 -10 -10 -9 -9 -9 -9 -8 -8 -8 -8 -8 -8 -8 -8 -8 -8 -8 -7 -7 -7 -7 -7 -7 -6 -6 -6 -6 -6 -6 -6 -6 -5 -5 -5 -5 -6 -6 -6 -5 -5 -5 -6
-10 -9 -9 -9 -9 -8 -8 -8 -8 -8 -8 -8 -8 -8 -8 -8 -8 -8 -8 -8 -7 -7 -7 -7 -7 -7 -7 -7 -6 -6 -6 -6 -6 -6 -6 -6 -5 -6 -5 -5 -6 -6 -6 -6 -6
-9 -9 -8 -8 -8 -8 -8 -7 -7 -7 -7 -7 -7 -7 -7 -8 -8 -7 -7 -7 -7 -7 -7 -7 -7 -7 -7 -6 -6 -6 -6 -6 -7 -6 -6 -6 -5 -6 -6 -6 -6 -6 -6 -6 -6
-9 -9 -8 -8 -8 -8 -7 -7 -7 -7 -7 -7 -7 -7 -7 -7 -7 -7 -7 -7 -7 -7 -7 -6 -6 -6 -6 -6 -6 -6 -6 -6 -7 -6 -6 -6 -6 -6 -6 -6 -6 -6 -6 -6 -6
-8 -8 -8 -8 -8 -7 -7 -7 -7 -7 -7 -7 -7 -7 -7 -7 -7 -7 -7 -7 -7 -7 -7 -7 -6 -6 -6 -7 -7 -7 -6 -6 -6 -6 -6 -6 -6 -7 -6 -6 -6 -6 -6 -6 -6
-8 -8 -7 -7 -7 -7 -7 -7 -7 -7 -7 -7 -7 -7 -7 -6 -7 -6 -6 -7 -7 -7 -7 -7 -6 -6 -7 -7 -7 -7 -6 -6 -7 -7 -6 -6 -6 -6 -6 -6 -6 -7 -6 -6 -6
-7 -7 -7 -7 -7 -7 -7 -7 -7 -7 -7 -7 -7 -7 -7 -7 -7 -7 -7 -7 -7 -7 -6 -6 -6 -7 -7 -7 -7 -7 -7 -6 -7 -7 -6 -6 -6 -6 -6 -6 -6 -6 -6 -6 -6
-7 -7 -7 -7 -7 -7 -7 -7 -7 -7 -7 -6 -7 -7 -6 -7 -7 -7 -7 -7 -7 -7 -7 -6 -7 -7 -7 -7 -7 -7 -7 -7 -7 -7 -6 -6 -5 -5 -6 -5 -6 -6 -6 -6 -6
-7 -7 -7 -7 -7 -7 -7 -7 -6 -6 -6 -7 -7 -7 -7 -7 -7 -7 -7 -6 -6 -7 -7 -6 -7 -7 -7 -7 -8 -7 -8 -8 -8 -8 -7 -8 -4 -4 -5 -6 -6 -6 -7 -7 -7
-7 -7 -7 -7 -7 -7 -7 -7 -7 -7 -6 -6 -6 -6 -6 -6 -7 -7 -7 -7 -7 -7 -7 -6 -7 -7 -7 -8 -8 -7 -8 -8 -8 -8 -7 -7 -6 -4 -5 -6 -7 -7 -7 -7 -7
-6 -6 -6 -6 -6 -7 -7 -7 -7 -7 -7 -7 -7 -7 -7 -7 -7 -7 -6 -7 -8 -8 -8 -7 -8 -7 -8 -8 -8 -8 -8 -8 -9 -8 -8 -7 -8 -4 -5 -6 -6 -7 -7 -8 -8
-6 -6 -6 -5 -5 -5 -6 -6 -6 -6 -6 -6 -6 -7 -7 -7 -7 -7 -7 -7 -7 -7 -7 -8 -7 -8 -8 -8 -9 -10 -10 -10 -9 -8 -7 -7 -8 -5 -6 -7 -7 -7 -7 -8 -8
-6 -5 -5 -5 -5 -6 -6 -6 -6 -6 -6 -6 -5 -5 -5 -7 -7 -8 -8 -8 -8 -8 -8 -8 -7 -8 -9 -9 -9 -10 -11 -10 -10 -10 -8 -9 -7 -5 -6 -7 -8 -8 -8 -9 -9
-6 -6 -6 -6 -6 -6 -6 -6 -6 -6 -6 -6 -6 -6 -6 -6 -6 -7 -7 -8 -9 -10 -10 -9 -8 -9 -9 -10 -11 -10 -10 -11 -13 -12 -11 -8 -7 -7 -7 -7 -8 -9 -8 -9 -9
-6 -6 -6 -6 -6 -6 -6 -7 -7 -7 -7 -7 -6 -6 -6 -7 -7 -7 -7 -7 -8 -8 -9 -9 -8 -8 -9 -10 -9 -11 -12 -12 -12 -12 -12 -9 -9 -8 -7 -8 -8 -9 -9 -9 -9
-6 -6 -6 -7 -6 -7 -7 -7 -7 -7 -7 -7 -7 -7 -7 -7 -7 -7 -8 -8 -9 -9 -10 -10 -10 -7 -10 -11 -12 -12 -12 -13 -13 -13 -13 -12 -9 -8 -8 -8 -9 -9 -10 -10 -10
-6 -7 -7 -7 -7 -7 -7 -8 -7 -7 -7 -7 -7 -8 -8 -8 -8 -8 -9 -10 -9 -9 -9 -12 -12 -10 -9 -10 -12 -13 -14 -14 -15 -12 -13 -13 -9 -9 -9 -9 -10 -10 -10 -11 -11
-7 -8 -7 -7 -8 -8 -8 -8 -7 -7 -8 -8 -8 -8 -8 -8 -9 -9 -9 -10 -11 -11 -11 -13 -14 -14 -12 -13 -14 -15 -15 -15 -15 -15 -15 -14 -10 -10 -10 -11 -11 -12 -12 -12 -12
-8 -8 -8 -8 -8 -8 -8 -8 -8 -8 -8 -8 -8 -8 -8 -8 -10 -9 -9 -10 -11 -12 -15 -16 -18 -17 -17 -17 -16 -16 -15 -16 -16 -15 -15 -15 -12 -10 -11 -12 -12 -12 -13 -13 -12
-8 -8 -8 -8 -8 -8 -8 -8 -8 -8 -8 -8 -8 -9 -9 -9 -9 -11 -13 -13 -14 -15 -17 -20 -20 -19 -17 -18 -18 -17 -16 -15 -15 -16 -16 -15 -15 -11 -12 -14 -13 -13 -13 -13 -12
-8 -8 -8 -8 -8 -8 -8 -8 -8 -8 -8 -9 -9 -9 -10 -11 -13 -13 -15 -17 -18 -18 -19 -21 -21 -21 -20 -17 -18 -18 -17 -16 -15 -16 -16 -16 -14 -14 -13 -13 -13 -14 -14 -14 -13
-8 -8 -8 -8 -9 -9 -9 -9 -9 -9 -9 -10 -10 -10 -12 -14 -16 -18 -21 -23 -23 -22 -21 -21 -23 -23 -23 -21 -19 -19 -19 -19 -17 -16 -16 -16 -16 -15 -14 -14 -12 -13 -14 -13 -14
Height
5776 5783 5788 5793 5799 5809 5819 5830 5839 5847 5855 5862 5868 5873 5878 5883 5886 5887 5890 5894 5896 5898 5900 5901 5903 5905 5907 5910 5911 5913 5915 5916 5919 5920 5919 5918 5919 5919 5920 5921 5921 5921 5921 5921 5921
5781 5786 5791 5795 5802 5812 5823 5833 5842 5850 5857 5863 5869 5874 5879 5883 5886 5888 5891 5893 5895 5897 5899 5901 5903 5904 5906 5908 5910 5911 5913 5914 5916 5917 5916 5915 5917 5918 5918 5918 5919 5918 5917 5919 5919
5785 5790 5794 5800 5808 5818 5828 5837 5845 5852 5859 5865 5870 5875 5879 5883 5886 5888 5891 5893 5895 5897 5898 5900 5902 5903 5905 5907 5908 5910 5911 5911 5912 5913 5914 5913 5913 5915 5916 5915 5915 5916 5914 5915 5915
5790 5794 5799 5808 5817 5827 5836 5843 5850 5856 5862 5867 5872 5876 5880 5883 5887 5888 5890 5892 5894 5896 5898 5899 5901 5902 5904 5905 5906 5907 5908 5909 5908 5909 5910 5910 5910 5910 5912 5911 5911 5911 5911 5910 5910
5797 5802 5809 5819 5828 5836 5843 5850 5856 5861 5865 5869 5873 5877 5881 5883 5886 5887 5889 5891 5893 5895 5896 5897 5899 5900 5900 5902 5903 5904 5905 5905 5903 5904 5906 5906 5907 5907 5908 5908 5906 5905 5907 5907 5906
5809 5816 5823 5830 5837 5844 5850 5855 5860 5864 5868 5871 5874 5878 5880 5883 5885 5887 5889 5890 5891 5893 5894 5895 5896 5896 5898 5899 5899 5900 5900 5901 5900 5899 5901 5902 5902 5903 5903 5902 5901 5901 5900 5902 5902
5820 5826 5833 5839 5844 5849 5854 5858 5862 5865 5868 5871 5874 5877 5880 5883 5884 5886 5887 5888 5889 5890 5892 5892 5893 5895 5895 5895 5895 5896 5897 5896 5898 5896 5895 5896 5899 5900 5894 5897 5897 5896 5895 5895 5895
5828 5833 5839 5844 5848 5853 5857 5860 5863 5866 5869 5872 5874 5877 5879 5882 5883 5884 5885 5886 5887 5887 5888 5889 5890 5890 5891 5891 5891 5891 5892 5894 5894 5891 5890 5889 5895 5892 5889 5890 5890 5890 5890 5890 5889
5839 5842 5845 5849 5852 5856 5859 5862 5865 5867 5869 5871 5873 5875 5878 5879 5880 5881 5883 5883 5883 5884 5884 5884 5885 5885 5887 5887 5886 5887 5887 5886 5884 5885 5883 5883 5887 5886 5882 5883 5882 5881 5882 5883 5882
5848 5850 5853 5855 5858 5860 5863 5864 5866 5868 5869 5871 5872 5875 5875 5876 5877 5878 5878 5879 5879 5879 5880 5878 5878 5880 5882 5881 5881 5877 5876 5877 5879 5881 5876 5875 5879 5878 5875 5873 5875 5875 5874 5873 5873
5856 5857 5859 5861 5862 5864 5865 5867 5870 5871 5871 5872 5873 5872 5872 5873 5874 5874 5874 5874 5874 5875 5874 5871 5872 5877 5875 5871 5871 5870 5869 5869 5872 5869 5867 5867 5868 5874 5868 5865 5866 5866 5866 5864 5865
5862 5863 5865 5866 5866 5867 5868 5869 5869 5870 5870 5870 5871 5870 5870 5870 5870 5869 5869 5869 5868 5868 5865 5867 5866 5869 5862 5863 5864 5863 5861 5863 5864 5861 5855 5855 5859 5863 5860 5860 5859 5859 5858 5856 5853
5866 5866 5867 5867 5867 5868 5868 5869 5869 5869 5868 5867 5866 5866 5866 5866 5865 5863 5863 5862 5862 5861 5859 5857 5860 5859 5856 5856 5854 5855 5852 5851 5849 5848 5845 5842 5845 5848 5853 5851 5850 5849 5847 5846 5846
5868 5868 5869 5868 5869 5867 5867 5866 5865 5865 5865 5864 5862 5862 5861 5860 5860 5857 5855 5855 5853 5853 5849 5847 5853 5850 5848 5847 5845 5844 5844 5838 5836 5833 5833 5832 5826 5834 5837 5839 5839 5838 5836 5834 5832
5867 5867 5866 5866 5866 5866 5867 5864 5863 5861 5860 5859 5856 5855 5854 5854 5854 5853 5849 5847 5845 5842 5840 5839 5838 5839 5835 5838 5833 5832 5830 5827 5825 5822 5820 5822 5814 5820 5823 5827 5827 5823 5821 5822 5822
5867 5866 5865 5863 5862 5861 5860 5858 5857 5857 5854 5854 5853 5851 5849 5847 5845 5842 5839 5837 5835 5833 5830 5832 5828 5823 5824 5823 5821 5818 5816 5814 5812 5808 5800 5813 5805 5812 5815 5814 5814 5814 5811 5810 5811
5866 5865 5863 5861 5860 5858 5856 5855 5853 5849 5847 5845 5843 5841 5840 5838 5835 5832 5828 5826 5823 5820 5819 5818 5818 5816 5811 5810 5808 5807 5803 5797 5793 5788 5791 5799 5789 5795 5805 5805 5801 5800 5801 5802 5801
5864 5862 5860 5857 5856 5854 5852 5851 5847 5844 5839 5837 5834 5832 5829 5828 5824 5822 5817 5815 5812 5806 5802 5801 5804 5802 5801 5796 5793 5791 5787 5782 5773 5775 5779 5778 5770 5789 5791 5792 5792 5789 5787 5789 5789
5860 5858 5856 5853 5851 5848 5846 5843 5840 5836 5833 5828 5826 5822 5820 5817 5814 5810 5807 5801 5797 5793 5788 5781 5781 5783 5782 5781 5779 5779 5769 5775 5763 5761 5756 5759 5764 5772 5778 5780 5780 5780 5778 5776 5779
5854 5851 5848 5846 5843 5841 5838 5834 5831 5827 5824 5820 5815 5812 5808 5805 5802 5797 5791 5785 5780 5775 5769 5765 5758 5766 5765 5763 5763 5757 5760 5753 5749 5743 5739 5741 5744 5755 5765 5768 5768 5768 5768 5769 5769
5847 5845 5840 5836 5833 5831 5827 5825 5822 5817 5812 5809 5804 5799 5795 5789 5786 5783 5778 5773 5766 5761 5752 5743 5739 5755 5745 5744 5747 5743 5740 5736 5733 5729 5724 5724 5727 5748 5751 5753 5755 5755 5756 5758 5758
5841 5837 5833 5829 5827 5822 5819 5815 5810 5805 5800 5794 5789 5785 5780 5776 5771 5764 5759 5750 5744 5737 5734 5726 5715 5716 5726 5721 5725 5725 5721 5720 5711 5713 5708 5709 5706 5736 5737 5738 5736 5741 5745 5746 5746
5831 5828 5824 5820 5817 5812 5808 5803 5796 5790 5785 5780 5774 5769 5763 5755 5746 5744 5738 5730 5722 5715 5707 5699 5695 5690 5692 5700 5700 5697 5701 5700 5696 5697 5689 5689 5691 5722 5721 5723 5724 5725 5728 5730 5732
5823 5818 5814 5811 5807 5802 5797 5792 5785 5778 5772 5765 5759 5752 5744 5738 5727 5717 5711 5703 5696 5691 5682 5677 5676 5676 5673 5673 5677 5677 5676 5675 5676 5674 5673 5671 5679 5697 5699 5702 5707 5711 5713 5715 5717
5812 5809 5805 5801 5795 5788 5782 5774 5767 5761 5755 5746 5742 5731 5721 5713 5707 5694 5681 5672 5667 5661 5656 5650 5644 5647 5645 5648 5651 5651 5652 5657 5654 5654 5649 5661 5661 5674 5681 5685 5689 5692 5696 5700 5700
5803 5799 5793 5789 5782 5774 5766 5759 5752 5747 5740 5733 5722 5712 5697 5679 5665 5659 5654 5648 5640 5637 5635 5630 5620 5624 5623 5630 5626 5619 5623 5632 5638 5637 5631 5636 5639 5656 5661 5662 5666 5672 5679 5682 5685
5792 5788 5782 5776 5769 5762 5752 5744 5738 5729 5724 5707 5695 5685 5670 5655 5642 5631 5621 5616 5612 5610 5612 5610 5605 5604 5594 5607 5600 5593 5613 5615 5615 5616 5617 5616 5620 5628 5635 5642 5646 5652 5661 5667 5667
Wind_Speed
29 24 18 18 31 44 47 44 41 37 35 34 31 28 25 22 21 21 20 20 18 17 18 19 21 23 23 22 21 22 22 18 15 11 12 15 14 13 13 13 14 16 16 17 21
28 22 18 21 37 46 45 42 39 35 34 32 29 27 24 23 22 21 20 20 19 18 18 19 19 21 22 22 21 21 20 19 14 14 16 16 14 15 14 15 13 18 19 20 21
27 20 21 29 43 46 42 40 37 33 32 31 28 26 23 23 23 21 20 20 19 19 19 19 19 20 20 20 19 19 19 17 18 18 17 17 16 17 17 17 18 19 23 21 23
21 27 32 40 44 41 38 35 32 28 29 28 26 25 23 22 20 20 20 19 19 19 19 19 19 19 19 18 18 18 19 18 19 19 19 19 19 21 18 19 21 21 23 24 25
34 36 40 42 39 36 33 29 25 19 18 22 23 22 21 20 21 21 20 20 19 20 19 19 19 19 20 19 19 18 19 19 23 23 21 21 20 22 21 21 25 25 24 25 28
43 41 39 36 33 30 26 23 18 14 11 13 17 19 19 19 20 20 20 20 20 20 21 21 21 22 21 21 22 22 23 25 26 25 25 23 23 21 23 26 27 27 28 27 28
42 39 36 33 31 28 24 20 15 11 9 10 12 16 16 16 18 19 20 20 20 21 22 23 24 23 22 24 24 25 26 27 25 28 29 29 24 21 31 27 27 29 32 32 31
40 38 36 32 28 24 20 16 13 11 8 7 8 12 14 15 17 19 21 21 21 23 24 25 25 26 25 26 27 28 29 28 27 32 33 34 24 28 32 30 30 32 32 32 33
32 31 29 28 25 21 18 15 12 9 8 7 6 9 10 14 18 19 22 23 23 24 26 27 29 29 28 30 31 30 30 31 34 34 36 36 31 31 35 34 34 34 33 32 34
28 26 24 22 19 17 14 12 9 8 7 5 3 4 8 12 14 17 21 24 25 27 28 30 32 33 31 32 32 35 38 37 35 33 38 39 34 34 37 39 37 35 35 35 35
24 21 19 17 14 12 9 7 4 2 1 1 4 5 7 9 11 15 17 22 25 28 31 35 36 31 32 38 39 40 40 40 36 39 43 43 40 32 39 42 39 37 36 37 37
22 20 17 14 10 8 5 3 2 3 5 6 8 10 12 13 14 17 19 21 23 26 30 30 31 29 39 40 40 42 43 42 40 42 49 48 43 37 40 40 41 38 39 39 40
21 18 15 14 12 11 9 7 6 7 10 9 12 15 16 19 20 23 24 26 28 29 32 35 33 35 39 41 43 43 44 45 47 48 50 51 45 42 37 39 40 41 41 41 40
18 17 16 13 10 7 6 5 6 10 9 14 15 15 18 19 20 23 26 29 30 31 37 41 36 40 43 45 45 46 44 50 51 53 52 52 53 46 43 41 40 41 42 43 43
19 18 17 17 17 16 15 11 10 9 10 15 17 20 23 25 25 27 31 33 33 35 38 38 39 40 44 42 47 50 50 52 54 56 57 55 59 51 47 42 40 43 45 41 40
23 23 22 21 22 24 24 24 20 20 21 20 21 22 23 25 28 31 35 39 40 43 45 42 44 47 43 43 46 49 51 51 52 55 62 53 56 51 48 46 45 42 41 41 39
20 20 18 19 19 22 25 23 23 26 31 31 33 32 30 29 31 34 38 40 43 47 48 49 48 49 53 50 47 44 46 49 55 59 59 50 55 54 45 42 43 45 44 37 36
23 23 23 23 22 23 24 24 26 30 31 31 33 36 40 39 42 40 45 45 47 50 53 54 53 54 53 56 54 52 50 55 59 58 56 54 60 46 41 37 34 39 41 37 33
25 26 24 24 25 27 30 31 32 33 35 38 39 43 43 44 46 48 49 50 52 54 58 62 62 59 60 60 59 59 62 52 53 57 60 61 56 48 40 37 35 31 37 37 33
30 30 29 30 30 31 34 34 35 36 35 39 43 46 46 45 47 50 54 57 58 62 64 66 71 67 67 66 66 66 61 63 61 63 65 64 60 50 43 40 37 36 35 34 34
30 30 32 30 31 34 35 36 38 40 42 43 45 49 50 52 53 53 56 57 61 65 71 74 77 68 68 69 65 65 67 64 65 65 67 68 65 47 44 45 41 39 35 33 35
36 34 35 34 33 34 36 40 42 46 47 50 53 56 56 56 60 59 58 58 60 63 67 76 80 79 73 76 70 65 65 66 67 71 71 71 72 50 46 45 45 42 38 35 37
35 34 33 33 36 40 42 45 48 50 53 56 60 61 63 66 69 68 68 67 68 71 76 79 78 79 82 79 76 72 70 71 66 65 72 76 73 52 52 49 45 43 41 39 37
33 34 34 37 40 41 44 49 53 55 58 61 66 70 74 76 75 80 84 85 78 77 80 76 64 65 71 74 77 70 68 68 71 73 70 74 72 59 58 56 50 46 44 43 41
36 35 38 42 45 49 51 53 57 61 64 70 73 78 82 85 85 85 82 83 83 85 81 72 73 73 69 70 74 81 68 72 73 77 76 77 76 63 60 59 54 51 47 44 47
36 37 40 45 48 51 53 58 62 65 69 74 79 83 86 88 86 87 80 78 80 83 79 73 75 70 77 76 73 88 89 75 68 71 75 81 75 66 64 66 63 56 47 46 47
40 42 45 49 51 54 58 63 67 70 75 80 88 90 87 83 81 74 69 66 66 69 70 72 64 56 57 61 86 85 76 85 89 76 65 69 78 79 67 62 65 60 48 45 48
Wind_Direction
152 150 152 159 166 172 173 172 171 173 177 175 176 177 181 184 183 186 185 191 193 195 196 200 206 211 214 213 214 209 216 215 212 227 235 240 232 229 226 228 239 244 240 238 232
153 154 160 159 162 166 169 168 168 173 175 175 177 179 182 185 190 191 192 194 195 196 194 198 203 207 213 217 216 215 222 225 225 222 233 240 240 241 240 240 238 240 250 237 240
149 158 152 152 157 162 163 164 166 173 176 177 180 182 183 189 195 196 197 199 201 200 200 203 206 212 219 219 219 219 227 231 232 232 236 243 244 244 242 247 246 239 248 248 244
142 133 136 144 151 156 158 162 164 172 177 181 184 187 187 195 198 202 203 205 205 206 208 208 212 218 224 224 223 226 232 239 242 239 240 244 250 253 245 251 256 249 247 255 252
113 123 130 139 144 149 153 154 157 169 177 182 189 193 194 200 203 207 207 210 211 212 214 216 218 222 227 228 229 230 236 245 249 245 243 249 255 258 266 259 259 261 257 253 255
105 113 123 130 135 136 135 137 141 148 160 182 192 198 198 208 209 216 215 217 218 221 223 224 225 227 230 234 237 234 237 241 248 259 257 255 260 267 265 256 261 264 266 260 255
107 111 115 120 121 123 125 128 133 139 150 169 192 196 203 212 220 222 224 227 230 233 237 238 237 238 238 241 247 246 245 248 257 258 261 264 261 271 264 265 265 264 264 266 263
112 115 117 117 118 120 124 125 130 135 142 156 177 193 210 218 229 229 232 233 237 240 243 246 248 248 248 251 253 256 257 260 259 259 263 265 267 270 272 272 269 267 267 268 265
109 113 115 117 119 121 120 124 127 129 134 146 172 205 219 229 232 237 239 240 243 248 250 253 254 254 255 259 261 266 266 261 255 259 264 267 270 273 273 272 271 273 273 270 268
102 106 110 114 115 118 125 124 123 130 132 135 167 216 238 243 247 245 247 248 249 252 254 256 257 258 259 262 264 261 260 263 266 265 267 267 270 269 273 271 270 273 276 275 271
87 93 99 103 107 113 107 101 102 119 167 199 233 242 249 256 249 257 257 257 258 261 263 262 262 269 266 260 260 263 266 268 269 270 267 266 266 265 267 269 273 271 271 271 273
71 71 70 69 65 58 52 34 345 289 281 271 263 261 265 266 263 260 260 259 261 259 263 268 269 261 260 264 267 269 272 273 271 270 271 272 271 266 263 266 268 271 271 273 272
61 61 61 56 47 35 23 11 343 313 296 276 274 276 274 270 268 265 265 264 261 263 265 265 264 259 262 264 265 266 269 272 270 268 270 273 274 272 266 265 269 271 272 272 273
50 45 36 31 28 21 15 359 328 317 305 300 295 281 273 269 272 269 268 269 269 267 266 267 268 269 266 266 271 270 270 269 269 271 272 273 275 273 271 272 272 273 273 271 270
29 23 21 19 12 13 360 350 322 303 286 277 278 282 287 289 290 283 279 276 271 264 263 268 268 266 268 273 270 272 271 270 271 272 272 271 273 270 277 273 278 274 271 271 271
10 8 3 357 354 350 346 343 337 321 313 305 295 294 288 286 280 277 277 278 279 277 274 270 268 264 264 262 265 269 270 272 272 272 268 270 274 268 275 279 278 277 274 274 270
356 356 349 348 340 337 335 333 328 322 321 321 313 307 297 282 275 271 271 271 273 274 275 275 273 270 271 268 265 267 270 271 267 266 272 274 272 271 274 279 277 277 278 276 267
344 339 335 331 329 332 330 323 320 315 313 312 311 308 305 302 297 291 286 277 272 271 269 267 265 268 269 269 267 262 258 261 265 269 273 267 268 277 273 273 277 278 281 280 274
333 327 322 319 321 325 324 321 319 313 311 310 311 310 305 298 294 292 291 286 277 273 272 271 268 264 262 264 265 267 263 265 265 262 264 265 268 268 273 274 274 270 270 276 274
332 328 322 318 316 321 318 315 316 315 313 311 310 307 305 301 296 292 289 287 285 281 275 274 275 275 271 266 263 262 264 263 261 262 263 264 266 268 270 270 271 271 269 268 267
325 323 318 314 314 315 314 315 315 314 314 312 310 310 308 304 301 296 292 286 283 281 279 280 279 276 271 268 266 264 262 262 265 263 265 267 263 263 266 268 271 270 272 272 270
321 314 313 310 310 310 316 317 316 316 314 312 312 311 309 305 303 299 293 282 282 277 273 270 270 273 272 270 264 261 262 262 259 262 263 265 264 265 266 270 270 270 270 266 266
320 317 315 316 317 317 318 320 317 315 313 313 313 312 310 306 301 299 295 287 276 272 268 269 267 266 266 265 266 266 263 258 260 260 259 264 265 265 266 266 268 269 267 268 267
315 313 312 314 313 316 316 316 314 314 315 315 315 313 309 306 303 301 295 291 281 268 268 265 261 269 267 260 259 257 258 261 260 257 258 258 262 257 260 262 262 260 262 260 260
313 312 314 318 317 316 316 316 317 317 317 314 312 310 307 303 299 293 285 279 272 269 270 269 264 254 251 254 251 252 256 254 253 259 258 264 263 255 256 262 262 263 263 259 258
314 312 312 315 317 318 318 316 315 313 313 311 313 309 304 300 294 291 283 276 271 268 269 273 275 271 256 251 249 245 244 245 250 250 256 265 268 265 260 259 257 258 264 264 263
314 312 310 311 315 317 314 313 312 311 312 314 310 306 300 296 292 289 284 282 283 283 281 277 283 281 275 271 261 254 251 252 251 249 251 249 258 262 258 255 251 250 246 247 257